Wind_Speed
42 43 44 45 46 47 48 49 50 50 49 50 52 53 53 53 54 56 56 57 57 57 57 56 56 57 56 56 55 55 54 54 52 52 52 51 50 49
41 42 43 44 45 46 48 48 49 49 49 49 50 51 52 52 52 54 54 55 56 57 58 58 57 58 57 57 57 56 56 56 55 54 54 53 52 51
41 41 42 42 43 44 45 46 47 48 48 47 48 48 50 51 51 52 52 53 55 57 57 58 60 60 60 60 59 59 58 58 57 56 55 56 55 53
40 41 41 42 42 43 43 44 46 46 47 47 48 49 50 51 52 53 54 54 55 56 57 58 60 62 62 61 61 62 61 59 58 58 57 57 57 56
40 40 41 41 42 42 42 43 44 45 46 47 48 49 50 51 52 53 54 56 57 57 58 59 60 62 63 63 62 62 63 62 59 59 59 59 59 59
40 40 41 41 41 42 42 43 43 44 45 46 47 48 49 51 52 53 54 55 56 57 58 59 59 61 63 63 63 62 63 63 62 61 61 61 61 61
40 40 41 41 41 42 42 42 42 43 44 46 47 48 50 51 52 53 54 55 55 56 57 58 59 60 61 62 63 64 64 65 65 64 63 63 63 63
41 41 41 42 42 42 42 42 43 44 45 46 47 48 48 49 50 52 53 53 53 54 55 57 59 59 60 62 63 64 64 65 66 66 65 65 65 65
42 42 42 42 42 42 42 43 44 45 46 47 47 47 48 48 49 50 51 53 54 55 56 56 58 59 60 61 62 63 63 63 65 66 66 65 65 65
42 42 42 42 43 43 44 45 46 47 48 48 49 49 49 50 50 51 51 52 53 55 56 56 56 57 58 60 61 62 63 64 64 66 67 66 66 67
41 42 42 43 43 44 45 46 47 47 48 48 49 49 49 50 50 51 52 53 53 54 55 56 56 57 57 58 59 60 62 63 64 64 65 66 66 67
43 43 44 44 44 45 46 47 47 47 47 46 47 47 48 48 49 50 51 51 52 53 54 55 55 56 56 57 58 59 59 61 62 61 62 62 62 63
43 43 44 45 45 46 47 47 47 46 45 45 46 47 48 48 49 50 51 51 52 52 53 54 54 54 54 53 53 54 55 56 57 58 58 58 59 59
43 44 44 44 45 45 46 46 45 45 44 45 46 46 47 48 49 50 51 51 51 52 52 53 52 52 51 50 50 50 51 52 53 54 55 55 56 56
43 43 43 43 44 44 44 43 43 43 43 44 45 46 47 48 48 49 49 50 50 50 50 50 50 49 49 48 47 48 48 49 50 50 51 52 52 53
42 42 42 43 43 43 43 42 42 43 43 43 44 45 45 46 46 46 47 46 46 46 47 46 46 45 45 45 45 45 46 46 46 46 46 46 47 49
41 41 41 42 42 42 42 42 42 42 41 42 42 43 43 43 43 43 43 42 42 41 41 42 41 41 42 41 41 41 41 41 41 41 41 41 41 43
41 40 41 41 41 41 41 41 40 40 40 40 41 41 41 40 40 40 40 39 39 38 38 37 37 37 37 37 37 36 36 36 36 37 38 38 38 40
39 39 39 40 40 40 40 39 39 39 39 39 39 38 38 38 38 37 37 37 36 35 34 33 34 33 33 32 33 34 34 33 33 34 35 35 35 35
38 38 39 39 39 39 38 38 38 38 38 37 37 36 36 36 36 35 35 34 33 32 31 31 30 30 30 30 30 30 31 30 30 30 31 31 31 31
37 37 37 38 37 37 37 37 36 36 36 35 34 34 34 34 34 33 32 32 31 30 30 29 29 29 28 28 27 27 28 28 27 27 28 28 29 29
36 36 36 36 36 36 36 35 34 34 33 33 32 32 32 32 32 31 30 29 28 28 28 28 28 27 26 26 25 26 26 26 26 26 26 26 26 27
35 35 35 34 34 34 35 34 33 32 32 32 32 32 32 31 30 29 28 27 27 27 27 27 26 26 25 25 24 24 24 25 25 24 24 24 24 24
Wind_Direction
284 284 282 280 279 278 277 276 275 274 273 273 271 269 268 267 266 264 263 263 263 263 263 262 261 260 260 261 261 261 262 262 261 261 260 260 261 261
285 285 284 283 282 280 278 277 276 275 273 273 271 270 268 267 267 267 266 265 264 264 265 263 262 261 260 260 261 262 262 261 260 261 260 261 261 261
287 287 286 286 285 284 281 279 277 275 274 273 272 270 269 267 267 267 267 267 266 266 266 264 262 262 261 260 260 260 259 260 260 260 260 259 260 260
288 288 288 287 286 285 284 282 279 277 275 274 274 273 271 269 268 269 269 268 268 267 265 264 263 262 262 260 259 258 259 259 258 258 258 259 259 260
289 289 289 288 287 287 286 284 282 280 278 277 275 275 273 271 271 271 270 269 270 269 267 265 264 262 261 260 260 259 259 258 258 258 257 259 260 261
289 290 290 289 288 288 287 286 284 282 280 279 278 276 275 274 272 271 271 271 270 269 268 266 265 264 261 260 260 259 259 258 258 259 259 259 260 260
290 291 291 290 290 289 288 287 285 284 282 280 279 279 277 276 274 273 272 272 271 270 269 268 267 266 263 261 261 261 260 259 259 259 259 258 259 260
290 290 291 291 290 289 287 286 286 285 284 283 281 280 280 278 276 275 273 272 272 271 271 270 269 267 265 263 262 262 262 261 260 259 260 259 259 259
291 290 290 291 290 289 289 288 287 287 286 285 283 282 281 280 278 277 276 275 274 272 271 271 270 267 265 264 262 262 261 261 261 261 260 259 260 259
292 292 292 292 291 290 290 290 289 289 287 286 285 284 283 282 281 279 278 277 276 274 273 272 271 270 268 266 264 263 262 262 262 262 261 259 259 259
294 293 293 293 292 292 292 291 291 289 288 286 285 284 284 283 282 281 280 279 277 276 275 273 272 271 270 268 267 266 265 264 264 264 263 261 260 260
294 294 294 293 292 292 292 292 292 290 288 286 285 284 284 283 283 282 282 281 279 277 275 274 273 272 270 269 268 267 266 265 265 264 264 262 261 260
295 295 295 295 294 294 294 293 293 291 289 288 287 287 286 286 285 285 284 284 282 280 277 275 274 273 272 270 268 267 266 265 264 264 264 263 261 261
297 296 296 296 295 296 296 295 294 292 290 290 290 289 289 288 288 287 286 286 285 282 279 277 275 274 272 271 269 267 266 265 264 263 263 262 261 261
298 297 297 296 297 297 296 295 295 293 292 292 292 292 291 291 290 289 288 288 287 284 281 278 276 274 273 272 270 268 267 266 265 264 263 262 260 259
299 298 298 298 299 299 298 297 296 295 294 294 295 295 294 292 291 290 290 290 289 287 284 280 276 274 273 273 271 270 269 267 266 264 263 261 260 259
300 300 300 300 301 300 300 299 298 298 297 297 296 296 296 295 294 294 293 292 292 290 287 283 278 276 275 274 272 270 269 268 266 262 261 260 259 258
301 301 302 302 303 303 302 301 301 300 300 299 299 299 298 297 296 295 295 294 293 292 289 285 280 277 275 273 272 271 268 267 265 263 261 260 259 258
301 302 303 303 304 304 304 303 303 302 302 301 301 300 300 299 298 297 296 295 295 292 290 287 283 278 274 273 271 270 269 267 265 264 263 262 260 258
302 303 303 304 305 305 305 305 304 304 304 303 302 302 303 303 301 299 298 297 296 294 292 290 287 280 276 274 271 270 270 268 267 265 263 261 258 258
302 303 304 305 305 306 306 306 306 306 306 306 305 305 306 306 305 303 300 298 295 294 293 291 287 282 279 275 272 269 269 269 268 268 264 259 256 257
303 304 305 305 306 307 307 307 307 307 307 307 307 307 308 309 308 306 303 300 297 295 294 293 289 285 282 278 274 270 268 268 268 269 264 258 257 257
304 305 306 306 307 308 308 308 308 307 307 308 308 308 309 309 309 307 306 303 300 298 297 294 290 287 284 281 277 272 268 267 267 264 260 257 255 255
Height
5674 5671 5668 5666 5663 5661 5659 5657 5656 5654 5654 5652 5650 5650 5649 5650 5650 5650 5651 5652 5653 5654 5656 5657 5658 5660 5662 5664 5666 5667 5669 5671 5673 5675 5676 5678 5680 5682
5663 5660 5657 5654 5651 5649 5646 5644 5642 5640 5640 5639 5637 5636 5636 5636 5636 5636 5636 5637 5638 5639 5640 5641 5642 5644 5646 5648 5650 5652 5654 5656 5657 5659 5662 5664 5666 5667
5653 5650 5646 5643 5640 5637 5634 5632 5629 5627 5626 5625 5623 5623 5622 5623 5623 5622 5622 5622 5623 5624 5624 5625 5626 5627 5629 5631 5633 5636 5637 5640 5642 5643 5645 5648 5650 5652
5643 5639 5636 5633 5629 5625 5622 5620 5617 5615 5614 5613 5611 5610 5609 5609 5609 5608 5607 5607 5608 5608 5608 5608 5609 5610 5612 5614 5616 5618 5620 5623 5625 5627 5629 5632 5634 5635
5632 5629 5625 5622 5618 5615 5611 5608 5606 5603 5601 5600 5599 5597 5596 5595 5594 5593 5593 5592 5592 5591 5591 5591 5591 5592 5594 5596 5598 5600 5603 5606 5608 5610 5612 5614 5617 5619
5622 5619 5615 5611 5608 5604 5601 5598 5595 5592 5589 5587 5585 5584 5582 5580 5579 5578 5577 5576 5575 5575 5574 5574 5574 5574 5576 5578 5581 5583 5585 5587 5589 5592 5594 5596 5599 5601
5612 5609 5605 5601 5597 5594 5590 5587 5583 5580 5577 5574 5572 5569 5567 5565 5564 5562 5561 5560 5559 5558 5557 5556 5556 5557 5557 5559 5561 5563 5565 5568 5571 5573 5575 5578 5580 5583
5602 5598 5594 5590 5587 5583 5579 5575 5572 5568 5565 5561 5558 5555 5553 5550 5548 5546 5544 5543 5543 5542 5540 5539 5538 5538 5538 5540 5541 5543 5545 5548 5550 5552 5555 5557 5560 5562
5590 5586 5583 5579 5575 5571 5567 5563 5559 5555 5552 5548 5545 5541 5538 5536 5533 5531 5528 5526 5525 5524 5522 5522 5520 5519 5519 5520 5521 5523 5525 5527 5529 5531 5534 5536 5539 5541
5579 5575 5571 5567 5563 5559 5555 5551 5547 5542 5538 5534 5531 5527 5524 5520 5517 5515 5512 5510 5508 5505 5504 5504 5502 5501 5500 5500 5500 5501 5503 5506 5507 5509 5511 5514 5517 5520
5568 5563 5559 5555 5551 5547 5542 5538 5533 5528 5524 5520 5516 5512 5509 5505 5502 5499 5496 5493 5491 5488 5485 5484 5484 5482 5482 5481 5480 5480 5482 5483 5485 5487 5489 5491 5494 5496
5556 5552 5547 5543 5538 5533 5529 5524 5519 5515 5510 5506 5502 5498 5494 5490 5487 5483 5479 5476 5473 5471 5468 5466 5464 5462 5464 5463 5461 5460 5460 5462 5464 5465 5466 5468 5470 5472
5544 5539 5535 5530 5525 5520 5515 5510 5505 5500 5496 5492 5488 5484 5480 5475 5471 5467 5463 5459 5455 5452 5449 5447 5445 5443 5442 5444 5443 5441 5441 5442 5443 5444 5446 5447 5448 5450
5532 5527 5522 5517 5512 5507 5502 5496 5491 5487 5482 5478 5474 5469 5465 5460 5456 5451 5447 5442 5438 5434 5430 5428 5427 5425 5424 5424 5425 5424 5423 5423 5424 5425 5426 5428 5429 5430
5519 5514 5509 5504 5499 5494 5489 5484 5479 5474 5469 5465 5460 5455 5450 5445 5440 5436 5431 5426 5421 5417 5413 5410 5409 5408 5407 5407 5408 5407 5406 5407 5406 5407 5408 5409 5410 5411
5508 5502 5497 5492 5487 5481 5476 5471 5466 5461 5456 5451 5446 5441 5436 5431 5426 5421 5416 5411 5407 5402 5397 5394 5393 5392 5391 5390 5390 5390 5389 5389 5390 5390 5391 5392 5393 5394
5496 5491 5486 5480 5475 5470 5464 5459 5454 5449 5444 5439 5434 5428 5423 5418 5413 5408 5403 5398 5393 5389 5385 5381 5379 5378 5377 5375 5375 5375 5374 5375 5375 5375 5376 5377 5379 5379
5485 5480 5475 5469 5464 5459 5453 5447 5442 5437 5432 5427 5422 5417 5411 5406 5401 5396 5391 5387 5382 5378 5374 5370 5368 5366 5365 5364 5362 5362 5362 5362 5362 5362 5363 5364 5365 5366
5474 5469 5464 5459 5454 5448 5442 5437 5432 5426 5421 5416 5411 5406 5401 5395 5390 5385 5381 5376 5372 5368 5364 5360 5358 5356 5355 5354 5353 5351 5350 5350 5351 5351 5351 5352 5353 5354
5464 5459 5454 5449 5443 5438 5433 5427 5422 5416 5411 5406 5401 5396 5391 5386 5380 5376 5371 5367 5363 5359 5355 5351 5348 5346 5345 5344 5343 5342 5340 5340 5340 5341 5341 5341 5342 5343
5454 5449 5444 5439 5434 5428 5423 5418 5412 5407 5402 5396 5391 5386 5382 5377 5371 5366 5362 5358 5354 5350 5347 5344 5340 5338 5335 5334 5334 5333 5332 5331 5331 5331 5331 5332 5333 5334
5444 5439 5434 5429 5424 5419 5414 5409 5403 5398 5393 5388 5383 5378 5373 5368 5363 5358 5354 5349 5346 5342 5339 5335 5332 5330 5328 5327 5326 5325 5324 5324 5323 5322 5322 5323 5323 5325
5434 5429 5424 5420 5415 5410 5405 5400 5395 5390 5385 5380 5375 5370 5365 5360 5355 5351 5346 5342 5338 5335 5331 5328 5325 5322 5320 5319 5318 5317 5316 5316 5315 5315 5315 5315 5316 5317